Showing default

JILIN-01 GAOFEN 3D 30, 52447

Orbit data source: Space-Track

JILIN-01 GAOFEN 3D 30, 52447 is a payload satellite owned by Changguang WJ (CN) in SSO that was launched on Thu, 05 May 2022 UTC via a CHANG ZHENG 2D launch vehicle from the Taiyaun Space Center, China (TSC). Payload-class satellites include a variety of spacecraft equipped with specific instruments for various scientific and technological missions. These include communications satellites like Starlink; space stations such as the ISS; scientific satellites like the Hubble; Earth observation satellites from companies like Planet Labs, Umbra, and HawkEye 360; GPS; miniature CubeSats for education and research; and military/defense satellites.

Loading next visibility...
Identifier
52447, 2022-048E
Orbit
SSO
Country
Flag of CNCN / PRC
Related business
Manufacturer
Changguang WJ
Mission
Operational Commercial Imaging
Bus & Motor
JL-1, Unknown motor
Mass
42 kg wet, 42 kg dry
Launch date (UTC)
2022-05-05 (4 years ago)
Launch vehicle
CHANG ZHENG 2D
Launch site
Taiyaun Space Center, China (TSC)
Object type
Payload
Rocket body
Debris
Shape & HBR
Box + 2 Pan, 0.8 m
Radar Cross Section
2.000 m², Medium (>0.1 m² and < 1m²)

Expand to show TLE details & history
Last TLE update: 10 hours ago

TLE from 10 hours ago
0 JILIN-01 GAOFEN 3D 30
1 52447U 22048E   25346.96648274  .00065522  00000-0  10680-2 0  9991
2 52447  97.5671  85.2310 0007443 356.6199   3.5001 15.52372630200561
Epoch: 2025-12-12T23:11Z
TLE epoch observation values (Epoch: 2025-12-12T23:11:44.108Z)
Latitude
-0.0001°
Longitude
15.39671°
Altitude
407.886 km
Speed
7.669 km/s
True Right ascension
05h 40m 55s
True Declination
0° 00' 00"
Sunlit
Object was in full shadow at epoch
Visualization orbit readout
Latitude
Unknown
Longitude
Unknown
Altitude
Unknown
Speed
Unknown
Apparent Right ascension
Unknown
Apparent Declination
Unknown
Sunlit
N/A
Visualization observer readout
Local Sidereal Time
07:34:23
Azimuth
Unknown
Elevation
Unknown
Doppler factor
Unknown
Orbital elements
Apogee altitude
411.781 km
Perigee altitude
401.681 km
Semi-major axis
6,784.868 km
Eccentricity
0.00074
Inclination
97.5671°
RAAN
85.231°
Arg. of periapsis
356.6199°
True anomaly
3.50531°
Mean anomaly
3.5001°
Eccentric anomaly
3.50271°
Mean motion
3.88357 °/min
Orbital period
92.7 mins
BSTAR
0.001068
Loading maneuver chart data...
Computing Atmospheric mass density...
Loading historical data...
Loading historical data...
Loading historical data...
Loading historical data...
Loading historical data...
Loading historical data...
Loading historical data...

Documentation

Showing up to 5 results
|